Oroville, CA

4:53 AM PST on January 19, 2017 (GMT -0800)
Oroville Municipal

Weather History for KOVE - January, 2013

Change the Weather History Date:

Thursday, January 10, 2013

  Actual Average Record
Temperature  
Mean Temperature 40 °F -  
Max Temperature 48 °F 53 °F 75 °F (1962)
Min Temperature 32 °F 37 °F 25 °F (1987)
Degree Days  
Heating Degree Days 25    
Moisture  
Dew Point 33 °F    
Average Humidity 87    
Maximum Humidity 100    
Minimum Humidity 50    
Precipitation  
Precipitation 0.00 in - - ()
Sea Level Pressure  
Sea Level Pressure 30.10 in    
Wind  
Wind Speed 2 mph (NE)    
Max Wind Speed 8 mph    
Max Gust Speed -    
Visibility 7 miles    
Events Fog    
Averages and records for this station are not official NWS values.
T = Trace of Precipitation, MM = Missing Value Source: NWS Daily Summary

Daily Weather History Graph

Daily Weather History Graph

Search for Another Location

Airport or City:

Trip Planner

Search our weather history database for the weather conditions in past years. The results will help you decide how hot, cold, wet, or windy it might be!

Date:

Astronomy

Jan. 10, 2013 Rise Set
Actual Time 7:26 AM PST 5:02 PM PST
Civil Twilight 6:56 AM PST 5:31 PM PST
Nautical Twilight 6:23 AM PST 6:05 PM PST
Astronomical Twilight 5:51 AM PST 6:37 PM PST
Moon 6:11 AM PST (1/10) 4:16 PM PST (1/10)
Length of Visible Light 10h 35m
Length of Day
9h 35m
Waning Crescent, 1% of the Moon is Illuminated
Jan 10
Waning Crescent
Jan 11
New
Jan 18
First Quarter
Jan 26
Full
Feb 3
Last Quarter

Hourly Weather History & Observations

Time (PST) Temp. Windchill Dew Point Humidity Pressure Visibility Wind Dir Wind Speed Gust Speed Precip Events Conditions
12:53 AM 37.9 °F 34.4 °F 37.9 °F 100% 30.05 in 0.2 mi NE 4.6 mph - N/A Fog Fog
1:53 AM 35.1 °F - 35.1 °F 100% 30.07 in 0.2 mi Calm Calm - N/A Fog Fog
2:54 AM 33.1 °F - 33.1 °F 100% 30.08 in - Calm Calm - N/A   Unknown
3:02 AM 33.1 °F - 33.1 °F 100% 30.07 in 1.2 mi Calm Calm - N/A   Mist
3:17 AM 33.1 °F - 33.1 °F 100% 30.07 in 0.8 mi Calm Calm - N/A   Mist
3:25 AM 32.0 °F - 32.0 °F 100% 30.07 in 1.0 mi Calm Calm - N/A   Clear
3:34 AM 32.0 °F - 32.0 °F 100% 30.06 in 1.5 mi Calm Calm - N/A   Clear
3:42 AM 32.0 °F - 32.0 °F 100% 30.07 in 3.0 mi Calm Calm - N/A   Clear
3:53 AM 33.1 °F - 33.1 °F 100% 30.07 in 5.0 mi Calm Calm - N/A   Clear
4:53 AM 32.0 °F 27.5 °F 32.0 °F 100% 30.08 in 4.0 mi East 4.6 mph - N/A   Clear
5:53 AM 32.0 °F - 32.0 °F 100% 30.09 in 5.0 mi Calm Calm - N/A   Clear
6:53 AM 32.0 °F 27.5 °F 32.0 °F 100% 30.10 in 8.0 mi East 4.6 mph - N/A   Clear
7:53 AM 33.1 °F 30.0 °F 33.1 °F 100% 30.12 in 7.0 mi ESE 3.5 mph - N/A   Clear
8:53 AM 37.0 °F - 36.0 °F 96% 30.14 in 7.0 mi Calm Calm - N/A   Clear
9:53 AM 42.1 °F - 37.9 °F 85% 30.14 in 10.0 mi Calm Calm - N/A   Clear
10:53 AM 44.1 °F - 37.0 °F 76% 30.14 in 10.0 mi Calm Calm - N/A   Clear
11:53 AM 45.0 °F 43.5 °F 37.0 °F 74% 30.12 in 10.0 mi Variable 3.5 mph - N/A   Clear
12:53 PM 45.0 °F 41.2 °F 36.0 °F 71% 30.11 in 10.0 mi West 6.9 mph - N/A   Clear
1:53 PM 46.0 °F 41.9 °F 35.1 °F 66% 30.10 in 10.0 mi West 8.1 mph - N/A   Clear
2:53 PM 48.0 °F - 30.0 °F 50% 30.10 in 10.0 mi West 8.1 mph - N/A   Clear
3:53 PM 48.0 °F - 30.9 °F 52% 30.10 in 10.0 mi WNW 4.6 mph - N/A   Clear
4:53 PM 45.0 °F 41.2 °F 30.0 °F 56% 30.10 in 10.0 mi West 6.9 mph - N/A   Clear
5:53 PM 42.1 °F 37.7 °F 34.0 °F 73% 30.12 in 10.0 mi West 6.9 mph - N/A   Clear
6:53 PM 37.9 °F 34.4 °F 34.0 °F 86% 30.13 in 10.0 mi East 4.6 mph - N/A   Clear
8:53 PM 35.1 °F - 32.0 °F 89% 30.14 in 10.0 mi Calm Calm - N/A   Clear
10:53 PM 33.1 °F 30.0 °F 30.9 °F 92% 30.17 in 10.0 mi ESE 3.5 mph - N/A   Clear
11:53 PM 33.1 °F 30.0 °F 30.0 °F 89% 30.18 in 10.0 mi East 3.5 mph - N/A   Clear